Temp
82 81 81 81 80 80 79 80 78 81 81 78 79 78 79 79 77 77 74 69 68 68 69 71 70 71 69 69 68 67 64 63 59 61 61 61 59 58 60 61 63 63 65
82 82 81 81 81 80 80 80 81 80 79 78 79 79 78 78 78 77 70 69 67 67 67 69 70 72 69 70 66 64 62 62 59 55 56 57 56 57 58 58 63 68 63
83 82 81 80 80 80 81 81 80 79 78 78 78 78 78 78 78 76 69 69 70 68 69 68 72 69 66 63 63 61 60 61 57 55 53 54 55 57 58 60 61 61 65
83 82 81 81 81 80 80 80 79 79 78 78 79 79 79 79 78 73 70 68 69 69 69 68 65 64 64 61 60 58 56 55 53 53 52 51 53 57 60 59 59 62 56
83 82 81 82 82 82 81 80 80 79 79 79 79 79 79 79 78 72 70 69 69 69 66 63 63 69 68 65 61 56 54 51 51 50 49 49 52 56 56 58 57 58 54
83 82 83 81 80 79 81 80 79 79 79 79 79 80 79 80 69 68 70 69 69 67 65 66 67 65 65 65 66 64 59 53 51 50 49 48 50 51 58 56 56 54 53
83 83 81 81 81 81 79 79 79 79 79 79 80 81 76 72 65 66 69 71 69 69 68 66 68 68 63 60 63 64 64 64 61 54 51 51 51 52 52 55 54 52 52
82 82 82 81 80 79 79 79 79 79 79 79 80 76 72 68 64 64 69 73 72 69 67 63 59 58 58 61 58 58 57 57 58 60 55 53 54 54 53 52 51 51 52
81 81 81 81 79 79 78 78 79 78 78 78 75 72 69 66 61 64 70 68 68 65 63 60 58 56 59 61 58 57 56 57 63 63 61 61 62 61 59 55 52 54 49
80 82 82 81 81 79 78 78 78 77 75 75 71 70 66 67 59 63 68 68 63 59 57 55 60 56 57 57 55 54 53 53 54 56 56 57 59 60 60 52 50 52 51
81 80 81 81 80 80 78 78 76 73 74 73 72 72 69 66 64 62 64 67 63 60 58 54 53 57 55 55 56 54 54 53 56 55 55 54 54 58 53 52 51 52 52
81 81 80 80 83 80 78 76 73 74 72 72 72 69 68 65 62 61 62 63 64 61 56 54 53 55 55 56 56 57 55 56 55 55 55 53 52 54 51 52 52 51 49
80 79 79 80 80 78 75 73 73 74 72 72 71 69 66 62 61 57 57 59 60 59 58 56 54 54 55 56 60 58 58 57 56 55 53 53 53 55 53 52 54 52 51
79 79 80 78 77 77 75 73 74 73 72 72 70 69 66 61 60 62 61 60 58 59 58 54 56 57 57 57 58 58 57 57 56 55 54 53 54 54 52 53 51 51 49
79 79 77 76 76 73 67 70 75 76 73 72 72 72 67 63 63 60 60 61 60 58 55 54 53 53 54 54 55 56 56 57 56 55 55 54 54 54 53 54 52 51 48
78 77 76 74 68 67 66 63 52 53 55 57 60 69 69 59 52 52 52 52 51 53 55 54 53 53 54 54 54 54 55 57 55 56 55 54 54 53 52 52 52 49 48
79 78 72 70 70 69 69 70 65 57 49 47 52 53 56 55 49 49 49 50 50 55 57 56 55 56 56 55 55 55 54 55 55 56 55 55 54 54 53 51 51 50 49
74 65 74 73 71 72 71 71 70 70 63 59 52 54 49 47 47 47 47 52 55 57 56 57 57 57 56 55 54 55 54 55 56 55 55 55 55 54 53 52 51 49 49
75 76 76 74 74 72 72 72 72 69 64 58 55 51 47 46 46 47 50 60 57 56 57 57 58 57 56 55 54 54 55 55 55 56 54 55 54 54 51 51 52 51 51
76 71 72 76 73 74 73 74 71 65 62 60 61 59 51 58 60 57 57 59 59 59 59 59 58 57 56 55 55 54 54 55 55 56 56 55 55 55 54 53 52 51 50
79 74 72 76 76 76 76 76 70 66 64 63 62 60 55 64 61 60 58 59 60 61 61 60 58 57 56 56 55 55 55 55 56 57 57 56 56 55 54 54 53 52 52
80 78 76 76 78 77 77 78 71 69 67 65 63 59 50 64 62 60 59 61 62 64 65 61 61 59 58 57 56 56 56 57 56 57 57 57 56 56 55 54 53 52 51
82 80 78 77 78 73 76 78 71 70 69 67 64 62 60 64 65 64 65 63 62 62 62 63 62 59 58 59 58 57 58 57 57 58 58 58 57 56 55 54 53 52 52
81 82 81 79 79 79 79 76 74 66 71 68 65 64 65 63 68 67 68 63 64 63 62 64 62 61 59 59 59 58 58 58 58 60 59 58 57 55 55 54 54 55 52
79 81 83 79 79 80 78 78 76 74 74 70 67 66 67 67 66 70 67 66 66 65 62 62 60 62 62 61 58 56 45 39 54 51 58 59 58 57 55 54 54 54 54
71 71 76 72 73 74 80 79 78 77 76 71 69 67 69 69 68 71 67 67 66 66 63 61 61 62 62 60 58 47 39 39 47 45 56 58 57 56 55 55 56 54 54
MSLP
1009.09 1009.61 1010.11 1010.41 1010.85 1011.33 1011.66 1011.74 1011.93 1011.97 1012.09 1012.28 1012.35 1012.25 1012.21 1012.71 1013.42 1013.41 1013.80 1013.84 1014.51 1015.12 1015.35 1015.28 1015.43 1015.49 1015.19 1015.30 1015.34 1015.62 1016.07 1016.28 1016.90 1016.82 1016.37 1016.61 1016.45 1016.24 1015.73 1015.30 1014.78 1014.16 1013.70
1008.21 1008.83 1009.30 1009.78 1010.31 1010.62 1010.93 1011.17 1011.11 1011.21 1011.73 1012.09 1012.01 1011.73 1011.87 1012.30 1012.91 1012.95 1014.26 1014.88 1015.27 1014.79 1015.41 1015.44 1015.63 1015.51 1015.41 1015.27 1015.80 1016.28 1016.58 1016.63 1017.00 1017.40 1017.30 1017.40 1016.99 1016.50 1016.01 1015.47 1014.79 1014.11 1013.73
1007.55 1008.14 1008.68 1009.18 1009.52 1009.95 1010.25 1010.22 1010.40 1010.91 1011.27 1011.47 1011.60 1011.63 1011.68 1011.85 1012.34 1012.65 1013.67 1014.29 1014.37 1015.13 1015.54 1015.85 1015.61 1015.64 1015.95 1015.93 1016.37 1016.76 1016.88 1017.03 1017.40 1017.82 1018.07 1017.58 1017.13 1016.80 1015.95 1015.26 1014.69 1014.13 1013.66
1006.70 1007.40 1007.91 1008.27 1008.77 1009.14 1009.28 1009.65 1009.94 1010.25 1010.67 1010.96 1011.11 1011.25 1011.39 1011.45 1011.60 1012.31 1013.31 1014.49 1015.05 1015.42 1015.57 1015.95 1015.76 1015.93 1015.97 1016.38 1016.79 1017.18 1017.48 1017.83 1018.05 1018.12 1018.37 1018.08 1017.61 1016.62 1016.08 1015.34 1014.53 1014.18 1014.09
1005.86 1006.59 1007.06 1007.50 1007.85 1008.34 1008.69 1008.97 1009.35 1009.73 1010.12 1010.50 1010.67 1010.81 1011.01 1011.14 1011.42 1012.39 1013.23 1014.09 1014.73 1015.42 1016.08 1016.09 1016.11 1015.89 1016.10 1016.50 1016.89 1017.58 1017.95 1018.20 1018.38 1018.57 1018.63 1018.33 1017.88 1017.09 1016.49 1016.04 1015.33 1014.79 1014.39
1005.09 1005.79 1006.31 1006.88 1007.40 1007.70 1008.01 1008.45 1008.92 1009.35 1009.72 1010.00 1010.37 1010.56 1010.67 1010.93 1011.40 1012.09 1012.74 1013.67 1014.50 1015.29 1015.81 1016.13 1016.26 1016.38 1016.62 1016.83 1017.26 1017.62 1017.74 1018.14 1018.27 1018.49 1018.71 1018.69 1018.17 1017.59 1017.09 1016.61 1016.04 1015.36 1014.92
1004.48 1005.08 1005.69 1006.21 1006.71 1007.17 1007.61 1008.14 1008.66 1009.09 1009.35 1009.75 1009.91 1010.13 1010.86 1011.48 1011.72 1012.37 1012.96 1013.62 1014.38 1015.24 1015.74 1016.32 1016.59 1016.94 1017.06 1017.39 1017.77 1017.89 1017.80 1017.71 1017.79 1018.18 1018.48 1018.61 1018.36 1018.10 1017.87 1017.26 1016.79 1016.41 1016.02
1003.89 1004.42 1005.02 1005.61 1006.19 1006.77 1007.41 1007.93 1008.32 1008.64 1009.06 1009.39 1009.72 1010.58 1011.32 1012.03 1012.27 1012.86 1013.41 1014.06 1014.87 1015.57 1016.15 1016.60 1016.97 1017.35 1017.53 1017.68 1017.87 1018.07 1018.01 1017.82 1017.90 1018.04 1018.21 1018.49 1018.29 1018.10 1017.93 1017.57 1017.30 1016.71 1016.15
1003.33 1003.82 1004.35 1004.93 1005.65 1006.35 1006.99 1007.55 1007.93 1008.39 1008.89 1009.36 1010.13 1010.81 1011.56 1012.61 1012.78 1013.19 1013.71 1014.68 1015.47 1016.35 1016.84 1017.16 1017.40 1017.76 1017.81 1017.81 1017.93 1018.25 1018.20 1018.05 1017.64 1017.72 1017.91 1018.10 1018.13 1017.99 1017.89 1017.72 1017.63 1016.99 1016.35
1002.68 1003.08 1003.65 1004.33 1005.08 1005.85 1006.52 1007.15 1007.63 1008.22 1009.08 1009.69 1010.66 1011.21 1011.89 1012.87 1013.27 1013.64 1014.20 1015.13 1016.17 1017.23 1017.61 1017.71 1017.85 1018.15 1018.15 1018.11 1018.21 1018.48 1018.52 1018.53 1018.09 1017.85 1018.11 1018.34 1018.47 1018.45 1018.41 1018.26 1018.19 1017.88 1017.37
1002.17 1002.79 1003.41 1003.93 1004.59 1005.37 1006.21 1006.92 1007.77 1008.61 1009.28 1010.17 1010.97 1011.75 1012.50 1013.04 1013.72 1014.01 1014.49 1015.32 1016.24 1017.28 1017.85 1018.37 1018.46 1018.47 1018.38 1018.34 1018.34 1018.46 1018.45 1018.31 1018.27 1018.24 1018.36 1018.65 1018.89 1018.99 1019.04 1018.77 1018.66 1018.61 1018.31
1001.89 1002.58 1003.28 1003.93 1004.60 1005.28 1006.14 1007.11 1008.05 1008.79 1009.73 1010.56 1011.30 1012.22 1013.05 1013.56 1013.85 1014.36 1014.85 1015.41 1016.28 1016.95 1017.82 1018.23 1018.47 1018.51 1018.50 1018.54 1018.44 1018.38 1018.10 1017.99 1018.33 1018.73 1018.97 1019.17 1019.27 1019.39 1019.44 1019.28 1019.20 1019.17 1019.03
1001.82 1002.59 1003.33 1004.01 1004.66 1005.30 1006.32 1007.44 1008.31 1008.96 1009.90 1010.70 1011.39 1012.42 1013.47 1014.07 1014.37 1014.51 1015.07 1015.72 1016.39 1017.26 1017.83 1018.16 1018.37 1018.55 1018.60 1018.67 1018.61 1018.47 1018.35 1018.51 1018.81 1019.20 1019.39 1019.45 1019.23 1019.34 1019.59 1019.65 1019.47 1019.47 1019.33
1001.92 1002.65 1003.35 1004.15 1005.04 1005.91 1006.81 1007.56 1008.12 1008.97 1009.81 1010.61 1011.41 1012.46 1013.53 1014.26 1014.78 1015.10 1015.72 1016.25 1016.66 1017.32 1017.92 1018.31 1018.45 1018.73 1018.88 1018.95 1018.90 1018.78 1018.69 1018.76 1019.08 1019.39 1019.68 1019.59 1019.47 1019.67 1019.88 1019.91 1020.01 1019.84 1019.93
1002.00 1002.81 1003.63 1004.50 1005.28 1006.25 1007.53 1008.12 1008.14 1008.81 1009.31 1010.15 1010.88 1011.99 1013.05 1014.08 1014.68 1015.02 1015.52 1016.40 1017.05 1017.53 1018.01 1018.48 1018.85 1019.02 1019.31 1019.47 1019.34 1019.27 1019.14 1019.06 1019.38 1019.40 1019.72 1020.10 1020.30 1020.19 1020.30 1020.18 1020.39 1020.52 1020.69
1002.27 1003.07 1003.87 1004.74 1005.90 1006.55 1007.60 1008.63 1009.16 1009.49 1009.72 1010.12 1010.77 1011.61 1012.95 1013.71 1014.42 1015.08 1015.70 1016.24 1016.68 1017.33 1018.03 1018.47 1018.88 1019.17 1019.42 1019.67 1019.79 1019.82 1019.59 1019.45 1019.66 1019.65 1019.95 1020.28 1020.81 1021.03 1021.17 1020.90 1020.97 1021.34 1021.36
1002.03 1003.00 1004.15 1005.00 1005.88 1006.55 1007.36 1008.10 1009.30 1010.48 1010.21 1010.58 1011.10 1011.91 1012.76 1013.58 1014.39 1015.09 1015.73 1016.35 1016.81 1017.36 1017.99 1018.43 1018.71 1018.92 1019.15 1019.53 1019.87 1019.94 1019.99 1019.77 1019.82 1019.94 1020.20 1020.63 1021.10 1021.25 1021.43 1021.83 1021.98 1021.99 1022.03
1002.25 1003.03 1004.02 1004.83 1005.61 1006.25 1007.24 1007.92 1008.71 1009.48 1010.62 1011.83 1012.13 1012.23 1012.85 1013.70 1014.47 1015.12 1015.74 1016.50 1017.52 1017.49 1017.83 1018.11 1018.39 1018.76 1019.13 1019.55 1019.78 1019.95 1020.06 1019.95 1020.02 1020.10 1020.27 1020.57 1020.96 1021.50 1021.89 1022.11 1022.33 1022.53 1022.49
1002.40 1003.16 1003.77 1004.71 1005.41 1006.22 1007.04 1007.80 1008.40 1009.43 1010.51 1011.60 1012.65 1013.45 1013.69 1013.91 1014.50 1014.95 1015.40 1016.01 1016.69 1017.12 1017.52 1017.82 1017.95 1018.51 1019.10 1019.39 1019.70 1019.99 1020.01 1020.02 1020.21 1020.42 1020.67 1020.79 1021.12 1021.55 1022.17 1022.37 1022.59 1022.76 1022.81
1002.39 1003.01 1003.76 1004.50 1005.26 1005.93 1006.67 1007.22 1008.04 1009.31 1010.33 1011.34 1012.27 1013.21 1014.01 1014.08 1015.07 1015.58 1015.49 1015.81 1016.42 1016.70 1016.99 1017.27 1017.67 1018.21 1018.82 1019.27 1019.56 1019.77 1020.05 1020.12 1020.25 1020.36 1020.71 1020.81 1021.25 1021.51 1022.16 1022.48 1022.58 1022.88 1023.05
1001.99 1002.78 1003.42 1004.19 1004.76 1005.25 1005.81 1006.45 1007.71 1008.77 1009.72 1010.67 1011.56 1012.30 1012.69 1013.34 1014.25 1014.78 1015.12 1015.34 1015.63 1016.11 1016.34 1016.70 1017.37 1017.97 1018.46 1018.97 1019.39 1019.73 1020.02 1020.15 1020.21 1020.33 1020.63 1020.87 1021.06 1021.64 1021.76 1022.13 1022.51 1022.63 1022.98
1001.59 1002.29 1002.97 1003.57 1004.10 1004.61 1005.09 1005.76 1007.10 1008.10 1009.15 1010.07 1011.19 1012.17 1012.52 1012.98 1013.67 1014.19 1014.54 1014.80 1014.94 1015.19 1015.44 1016.15 1016.95 1017.49 1018.00 1018.51 1018.97 1019.40 1019.77 1019.86 1020.03 1020.25 1020.52 1020.82 1021.11 1021.28 1021.67 1022.23 1022.57 1022.87 1023.14
1001.11 1001.66 1002.40 1002.90 1003.37 1003.83 1004.51 1005.23 1006.39 1007.35 1008.39 1009.41 1010.51 1011.53 1012.33 1012.52 1012.98 1013.31 1013.71 1014.06 1014.38 1014.67 1015.05 1015.69 1016.46 1017.20 1017.45 1017.92 1018.43 1018.81 1019.18 1019.50 1019.67 1019.77 1020.32 1020.69 1021.01 1021.56 1021.80 1022.26 1022.53 1022.94 1023.24
1000.55 1000.71 1001.39 1002.27 1002.85 1003.20 1003.78 1004.76 1005.67 1006.55 1007.35 1008.39 1009.56 1010.40 1011.05 1011.45 1011.92 1012.50 1013.05 1013.55 1013.97 1014.26 1014.71 1015.19 1015.83 1016.56 1017.15 1017.64 1018.00 1018.43 1018.60 1018.90 1019.14 1019.46 1019.79 1020.42 1020.91 1021.41 1021.93 1022.26 1022.44 1022.77 1023.07
1000.07 1000.09 1000.33 1001.43 1002.04 1002.29 1003.07 1003.95 1004.96 1005.99 1006.61 1007.49 1008.47 1009.35 1010.03 1010.61 1011.01 1011.44 1012.21 1013.02 1013.47 1013.95 1014.43 1014.85 1015.46 1015.95 1016.53 1017.01 1017.66 1018.19 1018.78 1018.88 1019.20 1019.37 1019.55 1020.03 1020.87 1021.37 1021.85 1022.25 1022.57 1022.79 1022.89
1001.01 1000.64 1000.47 1000.80 1001.13 1001.87 1002.25 1003.04 1003.89 1004.91 1005.79 1006.72 1007.61 1008.42 1008.93 1009.59 1010.11 1010.62 1011.42 1012.18 1012.82 1013.49 1013.91 1014.38 1014.93 1015.49 1016.00 1016.66 1017.31 1017.92 1018.53 1018.89 1019.32 1019.57 1019.66 1020.03 1020.83 1021.39 1021.76 1022.37 1022.65 1022.82 1023.08
Wind_Speed
18 16 15 13 11 11 10 11 7 10 11 7 8 7 8 7 7 7 6 6 13 14 3 5 6 4 2 3 3 3 5 3 2 3 2 5 7 5 6 5 6 6 4
17 15 15 14 12 12 12 11 12 12 6 6 7 7 6 4 6 7 9 11 15 16 5 6 6 2 2 5 5 6 5 4 3 3 3 5 4 5 5 6 6 6 4
16 16 14 13 13 13 12 12 10 7 7 7 6 6 6 6 5 4 10 10 7 2 2 5 3 4 6 6 6 5 4 4 4 4 3 2 2 4 6 7 8 6 4
16 16 16 15 14 12 12 10 9 8 6 6 7 6 7 7 6 5 8 8 6 3 1 3 6 7 8 8 6 6 5 5 4 4 3 3 3 4 7 10 10 9 5
17 16 16 14 13 12 11 10 8 7 6 6 6 6 6 6 4 8 9 9 8 8 7 6 6 11 13 9 6 6 5 4 4 4 3 3 4 7 11 8 8 9 3
16 16 15 13 10 10 11 8 7 6 6 6 6 6 6 1 15 14 10 7 8 10 9 8 7 11 11 13 12 8 8 5 3 3 1 2 4 4 9 9 8 8 12
14 14 13 13 13 11 7 7 6 7 6 6 6 5 6 7 15 13 11 7 10 8 9 6 7 5 8 7 6 7 7 6 6 5 4 2 3 5 5 9 10 6 7
13 12 12 11 10 7 7 7 6 5 6 5 5 9 9 6 14 12 12 11 10 10 10 8 8 7 6 6 6 6 3 1 4 4 6 3 3 4 4 3 4 4 3
12 12 12 11 10 8 8 8 5 6 5 4 9 9 11 7 10 14 16 12 12 11 9 7 7 7 6 8 7 5 5 5 5 7 8 8 6 9 7 4 6 8 4
10 11 11 11 11 10 8 7 5 6 8 9 8 8 11 9 8 17 15 10 12 7 6 7 10 6 7 9 7 5 5 3 6 7 4 5 5 6 8 6 3 8 7
8 8 9 10 11 10 9 6 8 9 11 10 11 9 9 8 7 15 15 9 9 7 6 4 3 5 8 9 8 4 1 2 5 5 4 4 2 4 3 5 6 6 9
9 9 10 11 9 9 11 9 11 11 12 11 11 9 7 5 6 11 14 13 12 10 7 4 4 5 7 7 4 5 8 4 4 4 4 3 4 3 2 3 5 5 4
10 10 10 10 10 12 13 12 9 11 9 10 9 9 6 4 5 12 13 17 16 8 6 7 8 7 7 5 7 9 8 5 4 5 3 2 2 4 4 2 3 4 5
12 12 12 11 12 11 9 8 9 9 10 9 10 10 8 5 6 8 9 11 15 10 10 5 5 4 2 3 4 6 4 4 4 3 3 2 3 4 3 0 2 2 3
13 12 10 10 12 11 7 4 9 8 9 11 10 10 11 9 7 10 12 9 8 9 7 3 2 2 2 2 3 4 5 5 4 2 5 4 4 4 4 5 4 5 5
12 10 10 9 8 9 8 7 16 9 8 13 13 11 7 11 16 16 15 15 15 15 4 3 3 2 3 4 4 3 2 4 3 3 4 4 4 4 4 4 5 4 5
12 12 8 10 9 10 9 11 9 6 15 9 15 17 15 16 17 17 17 16 15 8 3 2 4 5 4 5 5 4 2 2 2 5 5 5 5 3 5 4 4 4 5
9 14 10 9 9 10 9 9 9 10 6 5 8 10 18 18 17 17 16 12 4 1 2 4 5 5 4 5 4 4 2 3 3 4 5 5 5 5 4 5 5 4 4
11 9 9 9 9 10 9 9 9 8 7 7 6 8 7 14 16 17 13 7 6 4 3 4 6 5 5 5 5 5 4 3 2 4 3 5 5 5 4 5 5 6 5
11 14 10 10 10 11 10 11 10 9 9 9 9 9 5 9 8 7 3 5 4 4 5 6 6 6 6 6 5 5 4 3 3 3 4 5 5 5 4 5 5 4 2
10 10 15 10 11 11 11 11 11 10 10 9 9 10 13 12 10 9 6 5 5 6 7 7 6 6 6 6 5 4 4 2 4 4 4 4 5 4 4 5 4 5 4
8 11 12 11 11 12 12 11 12 11 11 10 9 9 14 7 8 6 6 5 5 8 8 8 8 7 6 6 6 5 6 5 4 5 4 5 5 5 5 5 5 5 5
9 13 12 11 12 13 11 11 13 12 12 11 11 11 8 8 8 8 8 5 6 7 7 8 9 6 5 6 5 6 6 6 6 6 5 4 5 5 5 5 5 5 4
11 14 14 12 13 12 13 13 13 14 14 13 13 13 13 7 10 10 9 5 7 8 7 9 8 9 8 6 5 4 5 5 4 4 8 6 6 7 6 5 6 6 5
5 10 11 12 12 12 12 14 13 14 14 14 12 12 13 10 7 10 8 9 9 9 8 7 6 11 12 11 8 9 7 10 8 6 5 7 9 9 7 6 5 4 4
5 5 4 4 7 7 12 13 13 14 13 14 12 12 14 12 9 10 10 11 11 9 9 6 9 12 13 9 11 13 9 10 8 7 4 6 8 6 6 7 7 4 4
Wind_Direction
194 197 208 213 208 209 213 228 227 235 235 229 243 244 225 193 183 193 147 152 98 306 357 345 314 314 24 51 61 38 64 78 112 308 353 28 26 352 346 334 332 324 322
192 197 203 208 211 211 215 219 227 237 235 221 222 232 244 216 184 205 126 108 144 235 302 349 292 37 51 61 64 62 55 47 101 44 352 14 22 338 314 331 333 330 335
188 195 202 206 206 214 217 221 225 228 221 223 216 225 233 227 205 201 136 166 195 144 23 280 258 96 63 76 65 58 46 39 44 77 8 329 329 342 339 346 339 340 4
187 193 200 206 208 208 212 216 216 217 208 208 217 216 221 227 232 101 130 131 149 129 45 81 77 91 100 87 76 65 57 53 41 57 33 347 307 344 4 356 357 356 24
185 193 202 204 205 208 211 210 209 201 205 199 209 217 223 221 202 122 127 149 140 104 114 101 99 97 93 106 97 74 81 69 67 62 37 349 348 3 8 346 355 349 31
184 194 198 200 196 196 206 200 194 197 192 191 203 220 230 200 121 130 136 132 129 124 125 110 93 84 87 90 98 128 133 115 93 95 57 48 352 357 5 358 359 6 10
183 193 190 191 200 203 179 176 186 192 185 189 204 205 92 111 130 133 126 127 120 131 122 110 92 80 84 100 122 113 102 109 136 137 98 42 29 4 330 11 12 359 19
186 188 188 184 185 165 167 175 184 169 169 174 162 101 106 123 129 129 113 108 98 90 98 104 99 78 50 114 124 105 113 311 110 99 110 106 70 352 359 17 344 326 309
181 182 178 172 163 159 163 166 163 137 139 121 107 118 118 127 127 113 104 96 96 90 86 86 91 81 35 94 90 95 53 17 24 58 129 125 60 45 20 38 11 16 356
177 177 167 160 159 157 152 152 137 112 107 107 100 103 117 126 108 114 112 114 104 101 80 71 77 98 73 71 85 87 60 347 9 0 50 95 96 62 30 53 0 26 16
155 150 154 153 149 147 139 127 111 114 107 111 110 110 105 119 123 125 118 120 127 124 113 94 81 104 87 80 96 83 214 297 6 30 78 98 143 97 40 32 33 44 38
153 149 145 144 146 140 129 117 123 121 116 119 119 102 97 96 102 133 131 126 132 125 131 135 156 119 85 92 72 1 354 81 69 86 72 53 109 127 88 61 52 51 48
141 140 137 135 133 133 130 128 128 120 128 131 126 119 111 85 82 124 119 119 117 112 133 152 152 120 71 31 10 20 33 60 77 80 78 45 53 149 124 60 25 66 45
133 137 144 135 130 129 125 135 132 137 140 139 136 128 129 113 106 111 109 102 102 108 126 138 142 106 79 6 29 33 34 61 97 101 99 57 71 72 64 151 40 350 35
137 142 133 133 133 125 94 124 131 144 149 151 148 143 146 148 161 141 137 132 134 147 129 102 94 77 72 33 53 54 46 45 62 68 85 93 67 67 50 51 44 31 50
147 141 143 132 126 125 126 100 45 63 107 138 135 142 139 139 141 138 131 135 142 147 98 130 144 173 173 156 120 78 40 46 34 91 79 93 105 94 75 53 60 51 47
152 146 131 135 144 138 142 145 138 55 66 70 138 130 138 152 141 140 143 149 150 124 111 178 156 155 140 130 137 120 129 8 43 81 99 100 96 84 91 77 61 50 29
127 130 148 144 148 142 151 154 153 151 129 115 24 140 138 141 140 141 131 105 118 49 128 157 140 138 133 128 133 129 98 56 67 108 106 106 102 114 96 84 79 77 53
139 146 143 146 147 148 151 153 153 136 132 126 112 65 87 121 139 147 148 148 161 174 182 155 136 129 118 120 118 118 127 113 89 99 113 119 119 110 95 106 105 99 83
152 155 158 158 153 157 159 160 143 136 138 141 145 151 142 126 151 167 174 161 165 167 156 143 139 131 131 130 131 132 132 111 83 91 94 131 143 138 139 138 128 117 98
159 162 156 166 168 167 165 166 142 147 147 151 153 162 162 157 164 175 184 182 182 166 157 142 135 135 137 141 149 149 152 173 160 131 118 122 128 115 122 124 125 128 130
161 158 163 175 173 174 174 165 148 152 155 150 151 158 163 153 164 171 183 203 196 166 153 141 143 149 155 158 170 175 175 164 153 139 143 129 136 142 118 106 98 90 100
177 170 173 177 181 178 173 161 153 159 162 154 155 159 177 167 173 175 192 199 162 149 144 142 149 153 158 170 174 166 156 164 169 151 145 144 141 122 128 126 115 93 99
185 181 176 178 183 182 179 161 162 165 164 155 160 172 181 175 175 179 192 164 157 146 144 152 154 157 160 165 158 162 163 148 138 152 149 138 124 119 116 118 121 120 112
231 189 167 182 184 192 163 163 166 170 170 160 167 173 179 183 179 181 174 158 155 153 152 148 145 155 156 161 139 135 133 108 109 99 120 128 126 131 131 126 132 131 120
313 300 247 138 162 175 167 170 168 173 176 163 169 175 179 183 187 183 159 159 153 160 157 150 151 158 155 145 145 143 143 121 109 104 114 125 129 134 129 137 155 138 119